QPF
0.08 0.11 0.15 0.15 0.06 0.04 0.06 0.04 0.01 0.02 0.02 0.00 0.00 0.00 0.00 0.00 0.00 0.00 0.00 0.00 0.00 0.00 0.00 0.00 0.00 0.00 0.00 0.00 0.00 0.00 0.00 0.00 0.01 0.01 0.01 0.01 0.01 0.00 0.00 0.00 0.00 0.00 0.01
0.10 0.11 0.12 0.11 0.07 0.06 0.07 0.08 0.04 0.01 0.01 0.00 0.00 0.00 0.00 0.00 0.00 0.00 0.00 0.00 0.00 0.00 0.00 0.00 0.00 0.01 0.01 0.00 0.01 0.00 0.01 0.01 0.01 0.01 0.02 0.02 0.02 0.02 0.01 0.01 0.01 0.01 0.01
0.12 0.13 0.13 0.12 0.10 0.08 0.05 0.04 0.03 0.02 0.00 0.00 0.00 0.00 0.00 0.00 0.00 0.00 0.01 0.00 0.00 0.01 0.00 0.00 0.00 0.00 0.00 0.00 0.00 0.00 0.01 0.01 0.01 0.01 0.01 0.02 0.02 0.03 0.02 0.02 0.02 0.02 0.01
0.12 0.14 0.13 0.12 0.11 0.10 0.08 0.06 0.05 0.06 0.03 0.02 0.02 0.02 0.01 0.01 0.01 0.01 0.01 0.00 0.01 0.01 0.01 0.01 0.00 0.00 0.00 0.00 0.00 0.00 0.01 0.01 0.01 0.01 0.01 0.01 0.01 0.02 0.02 0.02 0.02 0.03 0.03
0.15 0.14 0.14 0.13 0.13 0.13 0.11 0.08 0.08 0.08 0.08 0.06 0.05 0.04 0.04 0.06 0.03 0.01 0.00 0.00 0.00 0.01 0.01 0.01 0.00 0.00 0.00 0.00 0.00 0.00 0.00 0.00 0.00 0.00 0.00 0.00 0.00 0.01 0.01 0.01 0.01 0.02 0.03
0.15 0.15 0.15 0.15 0.16 0.15 0.14 0.11 0.10 0.09 0.08 0.07 0.05 0.03 0.02 0.03 0.02 0.01 0.00 0.00 0.00 0.00 0.00 0.00 0.00 0.00 0.00 0.00 0.00 0.00 0.00 0.00 0.00 0.00 0.00 0.00 0.00 0.00 0.00 0.00 0.01 0.01 0.02
0.15 0.14 0.14 0.15 0.17 0.16 0.14 0.12 0.11 0.11 0.10 0.07 0.05 0.04 0.02 0.01 0.01 0.01 0.00 0.00 0.00 0.00 0.00 0.00 0.00 0.00 0.00 0.00 0.00 0.00 0.00 0.00 0.00 0.00 0.00 0.00 0.00 0.00 0.00 0.00 0.00 0.01 0.01
0.17 0.18 0.20 0.23 0.23 0.22 0.21 0.17 0.13 0.12 0.11 0.09 0.08 0.06 0.03 0.02 0.01 0.00 0.00 0.00 0.00 0.00 0.00 0.00 0.00 0.00 0.00 0.00 0.00 0.00 0.00 0.00 0.00 0.00 0.00 0.00 0.00 0.00 0.00 0.00 0.00 0.00 0.01
0.18 0.18 0.21 0.28 0.31 0.31 0.29 0.25 0.19 0.15 0.13 0.09 0.05 0.03 0.02 0.01 0.00 0.00 0.00 0.00 0.00 0.00 0.00 0.00 0.00 0.00 0.00 0.00 0.00 0.00 0.00 0.00 0.00 0.00 0.00 0.00 0.00 0.00 0.00 0.00 0.00 0.00 0.00
0.10 0.12 0.16 0.20 0.23 0.26 0.25 0.21 0.17 0.13 0.09 0.05 0.03 0.02 0.01 0.01 0.00 0.00 0.00 0.00 0.00 0.00 0.00 0.00 0.00 0.00 0.00 0.00 0.00 0.00 0.00 0.00 0.00 0.00 0.00 0.00 0.00 0.00 0.00 0.00 0.00 0.00 0.00
0.06 0.08 0.12 0.15 0.16 0.17 0.16 0.13 0.10 0.08 0.06 0.04 0.02 0.01 0.01 0.00 0.00 0.00 0.00 0.00 0.00 0.00 0.00 0.00 0.00 0.00 0.00 0.00 0.00 0.00 0.00 0.00 0.00 0.00 0.00 0.00 0.00 0.00 0.00 0.00 0.00 0.00 0.00
0.04 0.05 0.06 0.08 0.08 0.08 0.07 0.06 0.05 0.04 0.02 0.01 0.00 0.00 0.00 0.00 0.00 0.00 0.00 0.00 0.00 0.00 0.00 0.00 0.00 0.00 0.00 0.00 0.00 0.00 0.00 0.00 0.00 0.00 0.00 0.00 0.00 0.00 0.00 0.00 0.00 0.00 0.00
0.01 0.01 0.01 0.02 0.02 0.03 0.03 0.03 0.02 0.01 0.00 0.00 0.00 0.00 0.00 0.00 0.00 0.00 0.00 0.00 0.00 0.00 0.00 0.00 0.00 0.00 0.00 0.00 0.00 0.00 0.00 0.00 0.00 0.00 0.00 0.00 0.00 0.00 0.00 0.00 0.00 0.00 0.01
0.01 0.01 0.01 0.01 0.01 0.01 0.01 0.01 0.01 0.00 0.00 0.00 0.00 0.00 0.00 0.00 0.00 0.00 0.00 0.00 0.00 0.00 0.00 0.00 0.00 0.00 0.00 0.00 0.00 0.00 0.00 0.00 0.00 0.00 0.00 0.00 0.00 0.00 0.00 0.00 0.00 0.00 0.00
0.00 0.00 0.00 0.00 0.00 0.00 0.00 0.01 0.01 0.01 0.01 0.01 0.01 0.01 0.01 0.01 0.00 0.00 0.00 0.00 0.00 0.00 0.00 0.00 0.00 0.00 0.00 0.00 0.00 0.00 0.00 0.00 0.00 0.00 0.00 0.00 0.00 0.01 0.01 0.01 0.01 0.01 0.01
0.00 0.00 0.00 0.00 0.00 0.00 0.01 0.01 0.01 0.01 0.01 0.01 0.00 0.00 0.00 0.00 0.00 0.00 0.00 0.00 0.00 0.00 0.00 0.00 0.00 0.00 0.00 0.00 0.00 0.00 0.00 0.00 0.00 0.00 0.01 0.01 0.01 0.01 0.01 0.01 0.01 0.01 0.01
0.00 0.00 0.00 0.00 0.00 0.00 0.00 0.00 0.00 0.00 0.00 0.00 0.00 0.00 0.00 0.00 0.00 0.00 0.00 0.00 0.00 0.00 0.00 0.00 0.00 0.00 0.00 0.01 0.01 0.01 0.01 0.01 0.01 0.01 0.01 0.01 0.00 0.00 0.00 0.01 0.01 0.01 0.01
0.00 0.00 0.00 0.00 0.00 0.00 0.00 0.00 0.00 0.00 0.00 0.00 0.00 0.00 0.00 0.00 0.00 0.00 0.00 0.00 0.00 0.01 0.01 0.01 0.00 0.00 0.01 0.01 0.02 0.02 0.01 0.01 0.01 0.00 0.00 0.00 0.00 0.00 0.00 0.00 0.00 0.00 0.01
0.00 0.00 0.00 0.00 0.00 0.00 0.00 0.00 0.00 0.00 0.00 0.00 0.00 0.00 0.00 0.00 0.00 0.01 0.01 0.01 0.01 0.01 0.01 0.02 0.01 0.01 0.01 0.01 0.02 0.02 0.02 0.02 0.01 0.00 0.00 0.00 0.00 0.00 0.00 0.00 0.00 0.00 0.00
0.00 0.00 0.00 0.00 0.00 0.00 0.00 0.00 0.00 0.00 0.00 0.00 0.00 0.00 0.00 0.00 0.01 0.01 0.01 0.01 0.01 0.01 0.02 0.02 0.01 0.01 0.01 0.01 0.02 0.03 0.02 0.02 0.02 0.01 0.01 0.01 0.01 0.01 0.01 0.00 0.00 0.00 0.00
0.00 0.00 0.00 0.00 0.00 0.00 0.00 0.00 0.00 0.00 0.00 0.00 0.00 0.00 0.01 0.01 0.00 0.00 0.00 0.00 0.01 0.02 0.02 0.02 0.02 0.01 0.01 0.02 0.03 0.03 0.03 0.02 0.02 0.01 0.02 0.02 0.02 0.02 0.02 0.02 0.02 0.01 0.00
0.00 0.00 0.00 0.00 0.00 0.00 0.00 0.00 0.00 0.00 0.00 0.01 0.01 0.01 0.01 0.01 0.00 0.00 0.01 0.01 0.01 0.02 0.03 0.03 0.03 0.03 0.03 0.04 0.04 0.04 0.04 0.04 0.03 0.02 0.03 0.02 0.02 0.03 0.03 0.04 0.03 0.01 0.01
0.01 0.01 0.01 0.01 0.01 0.00 0.00 0.00 0.00 0.00 0.00 0.01 0.01 0.01 0.01 0.01 0.01 0.01 0.01 0.01 0.01 0.01 0.02 0.04 0.04 0.04 0.05 0.05 0.05 0.04 0.04 0.05 0.04 0.03 0.05 0.03 0.03 0.04 0.03 0.02 0.01 0.00 0.00
0.01 0.01 0.01 0.01 0.01 0.00 0.00 0.00 0.00 0.00 0.01 0.01 0.01 0.01 0.01 0.01 0.02 0.00 0.00 0.00 0.01 0.02 0.03 0.04 0.05 0.05 0.04 0.04 0.04 0.04 0.04 0.04 0.03 0.03 0.06 0.05 0.03 0.03 0.02 0.04 0.03 0.01 0.00
0.01 0.01 0.01 0.01 0.02 0.01 0.00 0.00 0.00 0.00 0.00 0.00 0.01 0.01 0.01 0.01 0.01 0.00 0.00 0.01 0.01 0.02 0.02 0.01 0.01 0.02 0.03 0.03 0.03 0.03 0.04 0.05 0.04 0.03 0.05 0.04 0.02 0.02 0.02 0.04 0.05 0.02 0.01
0.01 0.01 0.01 0.01 0.02 0.02 0.00 0.00 0.00 0.00 0.00 0.00 0.00 0.01 0.01 0.00 0.00 0.00 0.00 0.01 0.01 0.02 0.01 0.02 0.04 0.06 0.07 0.06 0.04 0.04 0.06 0.06 0.06 0.04 0.04 0.03 0.02 0.02 0.02 0.02 0.04 0.04 0.04
MSLP
1015.65 1015.99 1016.25 1016.44 1016.59 1016.70 1016.80 1016.87 1016.93 1016.96 1016.97 1016.97 1016.98 1017.02 1017.14 1017.33 1017.62 1017.99 1018.42 1018.87 1019.30 1019.68 1019.98 1020.21 1020.35 1020.43 1020.48 1020.51 1020.54 1020.57 1020.62 1020.68 1020.73 1020.77 1020.81 1020.83 1020.84 1020.84 1020.84 1020.84 1020.85 1020.86 1020.89
1015.17 1015.52 1015.81 1016.06 1016.28 1016.48 1016.65 1016.82 1016.95 1017.06 1017.14 1017.21 1017.28 1017.37 1017.51 1017.71 1017.99 1018.34 1018.73 1019.16 1019.56 1019.93 1020.24 1020.47 1020.63 1020.72 1020.77 1020.79 1020.79 1020.80 1020.81 1020.82 1020.84 1020.85 1020.85 1020.85 1020.83 1020.80 1020.75 1020.70 1020.65 1020.60 1020.57
1014.82 1015.18 1015.51 1015.83 1016.14 1016.44 1016.73 1017.00 1017.24 1017.44 1017.60 1017.73 1017.84 1017.95 1018.08 1018.26 1018.49 1018.77 1019.10 1019.45 1019.81 1020.14 1020.42 1020.65 1020.82 1020.93 1020.99 1021.01 1021.00 1020.99 1020.97 1020.96 1020.94 1020.93 1020.92 1020.89 1020.85 1020.78 1020.70 1020.60 1020.49 1020.38 1020.29
1014.65 1015.01 1015.38 1015.77 1016.17 1016.58 1016.99 1017.37 1017.71 1017.99 1018.22 1018.40 1018.53 1018.65 1018.75 1018.87 1019.02 1019.21 1019.44 1019.69 1019.96 1020.23 1020.48 1020.69 1020.86 1020.99 1021.06 1021.10 1021.10 1021.09 1021.06 1021.04 1021.01 1020.99 1020.97 1020.93 1020.88 1020.80 1020.68 1020.54 1020.39 1020.22 1020.08
1014.65 1015.00 1015.41 1015.86 1016.35 1016.85 1017.35 1017.82 1018.24 1018.60 1018.88 1019.09 1019.23 1019.33 1019.39 1019.44 1019.50 1019.58 1019.69 1019.82 1019.99 1020.17 1020.37 1020.55 1020.72 1020.86 1020.96 1021.03 1021.06 1021.06 1021.06 1021.04 1021.03 1021.01 1021.00 1020.97 1020.91 1020.83 1020.70 1020.53 1020.34 1020.13 1019.92
1014.80 1015.17 1015.60 1016.09 1016.64 1017.20 1017.76 1018.28 1018.74 1019.13 1019.44 1019.66 1019.81 1019.88 1019.91 1019.89 1019.87 1019.84 1019.83 1019.85 1019.90 1019.99 1020.12 1020.26 1020.42 1020.57 1020.70 1020.80 1020.87 1020.92 1020.94 1020.96 1020.97 1020.98 1020.98 1020.97 1020.93 1020.85 1020.73 1020.55 1020.33 1020.08 1019.82
1015.10 1015.47 1015.92 1016.43 1016.99 1017.57 1018.14 1018.67 1019.14 1019.53 1019.84 1020.06 1020.20 1020.27 1020.27 1020.21 1020.11 1020.00 1019.88 1019.79 1019.74 1019.73 1019.79 1019.89 1020.02 1020.17 1020.33 1020.47 1020.58 1020.68 1020.75 1020.81 1020.85 1020.89 1020.92 1020.94 1020.92 1020.86 1020.74 1020.56 1020.32 1020.05 1019.76
1015.54 1015.91 1016.35 1016.86 1017.40 1017.96 1018.49 1018.98 1019.42 1019.78 1020.07 1020.29 1020.43 1020.50 1020.49 1020.41 1020.28 1020.11 1019.92 1019.73 1019.58 1019.49 1019.47 1019.51 1019.61 1019.76 1019.93 1020.10 1020.26 1020.39 1020.51 1020.61 1020.69 1020.76 1020.81 1020.85 1020.86 1020.81 1020.71 1020.54 1020.30 1020.01 1019.69
1016.09 1016.46 1016.89 1017.36 1017.86 1018.35 1018.81 1019.23 1019.60 1019.92 1020.18 1020.39 1020.54 1020.63 1020.64 1020.58 1020.44 1020.24 1020.00 1019.75 1019.53 1019.35 1019.25 1019.23 1019.29 1019.41 1019.58 1019.76 1019.95 1020.12 1020.26 1020.38 1020.49 1020.57 1020.65 1020.70 1020.72 1020.69 1020.60 1020.44 1020.21 1019.92 1019.59
1016.74 1017.10 1017.50 1017.92 1018.34 1018.75 1019.12 1019.45 1019.74 1020.01 1020.24 1020.44 1020.61 1020.73 1020.79 1020.77 1020.65 1020.46 1020.20 1019.90 1019.62 1019.37 1019.19 1019.10 1019.11 1019.19 1019.34 1019.51 1019.70 1019.87 1020.03 1020.15 1020.25 1020.34 1020.41 1020.46 1020.48 1020.46 1020.38 1020.24 1020.03 1019.75 1019.42
1017.43 1017.79 1018.15 1018.50 1018.85 1019.16 1019.43 1019.67 1019.89 1020.10 1020.31 1020.51 1020.71 1020.88 1020.99 1021.02 1020.95 1020.77 1020.51 1020.20 1019.86 1019.55 1019.31 1019.15 1019.09 1019.12 1019.22 1019.37 1019.53 1019.68 1019.81 1019.91 1019.99 1020.05 1020.09 1020.11 1020.12 1020.09 1020.03 1019.90 1019.71 1019.45 1019.14
1018.13 1018.45 1018.77 1019.07 1019.33 1019.56 1019.75 1019.92 1020.07 1020.24 1020.42 1020.64 1020.86 1021.08 1021.24 1021.33 1021.30 1021.16 1020.91 1020.59 1020.22 1019.87 1019.56 1019.34 1019.21 1019.18 1019.22 1019.30 1019.41 1019.51 1019.59 1019.65 1019.67 1019.68 1019.67 1019.66 1019.63 1019.59 1019.52 1019.41 1019.24 1019.01 1018.73
1018.75 1019.05 1019.33 1019.57 1019.78 1019.94 1020.07 1020.18 1020.29 1020.42 1020.60 1020.82 1021.06 1021.31 1021.52 1021.65 1021.67 1021.56 1021.34 1021.01 1020.64 1020.25 1019.90 1019.62 1019.42 1019.32 1019.29 1019.30 1019.34 1019.37 1019.37 1019.35 1019.30 1019.24 1019.16 1019.09 1019.02 1018.95 1018.87 1018.77 1018.62 1018.43 1018.19
1019.25 1019.53 1019.77 1019.98 1020.15 1020.28 1020.38 1020.45 1020.54 1020.65 1020.81 1021.03 1021.28 1021.54 1021.77 1021.94 1021.99 1021.92 1021.71 1021.41 1021.03 1020.63 1020.25 1019.93 1019.68 1019.50 1019.39 1019.33 1019.27 1019.21 1019.13 1019.02 1018.88 1018.73 1018.58 1018.44 1018.31 1018.20 1018.09 1017.98 1017.85 1017.69 1017.50
1019.63 1019.88 1020.11 1020.31 1020.47 1020.59 1020.67 1020.74 1020.81 1020.91 1021.05 1021.25 1021.49 1021.74 1021.98 1022.15 1022.22 1022.17 1022.00 1021.71 1021.36 1020.97 1020.57 1020.22 1019.93 1019.69 1019.51 1019.35 1019.21 1019.05 1018.87 1018.66 1018.43 1018.18 1017.94 1017.72 1017.53 1017.36 1017.21 1017.08 1016.96 1016.82 1016.67
1019.91 1020.15 1020.37 1020.58 1020.76 1020.89 1020.99 1021.05 1021.12 1021.20 1021.31 1021.47 1021.68 1021.90 1022.10 1022.26 1022.34 1022.31 1022.16 1021.92 1021.59 1021.22 1020.84 1020.48 1020.15 1019.86 1019.61 1019.37 1019.14 1018.88 1018.60 1018.29 1017.96 1017.62 1017.29 1016.98 1016.71 1016.48 1016.28 1016.11 1015.97 1015.85 1015.73
1020.14 1020.39 1020.63 1020.87 1021.08 1021.24 1021.35 1021.43 1021.48 1021.53 1021.61 1021.71 1021.85 1022.02 1022.18 1022.31 1022.37 1022.35 1022.23 1022.03 1021.74 1021.41 1021.05 1020.69 1020.34 1020.01 1019.69 1019.38 1019.05 1018.70 1018.33 1017.93 1017.50 1017.08 1016.66 1016.27 1015.91 1015.60 1015.34 1015.12 1014.94 1014.81 1014.70
1020.41 1020.68 1020.96 1021.23 1021.48 1021.67 1021.81 1021.88 1021.92 1021.93 1021.94 1021.98 1022.05 1022.13 1022.23 1022.32 1022.36 1022.34 1022.25 1022.08 1021.84 1021.54 1021.21 1020.85 1020.48 1020.11 1019.73 1019.35 1018.94 1018.51 1018.05 1017.57 1017.07 1016.56 1016.07 1015.60 1015.17 1014.77 1014.44 1014.15 1013.92 1013.76 1013.64
1020.78 1021.07 1021.39 1021.70 1021.98 1022.21 1022.35 1022.42 1022.42 1022.38 1022.33 1022.29 1022.26 1022.27 1022.30 1022.33 1022.34 1022.32 1022.24 1022.10 1021.89 1021.62 1021.30 1020.94 1020.56 1020.15 1019.71 1019.26 1018.78 1018.28 1017.75 1017.21 1016.65 1016.09 1015.53 1015.00 1014.50 1014.03 1013.61 1013.26 1012.97 1012.75 1012.61
1021.25 1021.58 1021.93 1022.28 1022.58 1022.81 1022.96 1023.00 1022.97 1022.87 1022.75 1022.62 1022.51 1022.43 1022.39 1022.36 1022.34 1022.30 1022.22 1022.08 1021.89 1021.63 1021.31 1020.94 1020.53 1020.08 1019.59 1019.08 1018.55 1017.99 1017.42 1016.83 1016.24 1015.64 1015.05 1014.48 1013.92 1013.39 1012.91 1012.48 1012.12 1011.84 1011.67
1021.81 1022.16 1022.53 1022.89 1023.20 1023.43 1023.55 1023.57 1023.49 1023.33 1023.14 1022.94 1022.75 1022.60 1022.49 1022.41 1022.34 1022.27 1022.17 1022.02 1021.82 1021.55 1021.21 1020.81 1020.36 1019.86 1019.33 1018.78 1018.20 1017.62 1017.02 1016.42 1015.82 1015.22 1014.62 1014.03 1013.44 1012.87 1012.33 1011.84 1011.42 1011.08 1010.85
1022.39 1022.73 1023.11 1023.46 1023.76 1023.96 1024.06 1024.04 1023.91 1023.71 1023.46 1023.20 1022.95 1022.74 1022.57 1022.43 1022.32 1022.20 1022.06 1021.88 1021.64 1021.33 1020.96 1020.52 1020.02 1019.49 1018.92 1018.34 1017.74 1017.15 1016.57 1015.98 1015.40 1014.82 1014.24 1013.65 1013.06 1012.47 1011.89 1011.36 1010.88 1010.49 1010.21
1022.89 1023.22 1023.57 1023.90 1024.16 1024.33 1024.39 1024.33 1024.17 1023.94 1023.66 1023.36 1023.07 1022.82 1022.60 1022.41 1022.23 1022.06 1021.86 1021.62 1021.32 1020.96 1020.54 1020.05 1019.52 1018.95 1018.37 1017.78 1017.19 1016.62 1016.07 1015.53 1014.99 1014.46 1013.91 1013.35 1012.77 1012.18 1011.59 1011.02 1010.50 1010.06 1009.73
1023.25 1023.55 1023.86 1024.14 1024.36 1024.49 1024.51 1024.43 1024.26 1024.01 1023.71 1023.40 1023.09 1022.81 1022.55 1022.31 1022.08 1021.83 1021.56 1021.25 1020.88 1020.45 1019.97 1019.44 1018.88 1018.30 1017.73 1017.15 1016.61 1016.08 1015.58 1015.10 1014.63 1014.15 1013.66 1013.13 1012.58 1011.99 1011.40 1010.81 1010.26 1009.78 1009.40
1023.45 1023.70 1023.96 1024.19 1024.37 1024.46 1024.46 1024.36 1024.18 1023.94 1023.65 1023.35 1023.03 1022.73 1022.44 1022.14 1021.85 1021.53 1021.17 1020.78 1020.33 1019.85 1019.32 1018.76 1018.19 1017.63 1017.08 1016.55 1016.06 1015.60 1015.18 1014.77 1014.36 1013.94 1013.49 1013.00 1012.47 1011.90 1011.30 1010.69 1010.12 1009.60 1009.16
1023.50 1023.71 1023.92 1024.11 1024.24 1024.31 1024.29 1024.20 1024.03 1023.81 1023.54 1023.24 1022.93 1022.61 1022.28 1021.93 1021.57 1021.17 1020.73 1020.26 1019.75 1019.21 1018.65 1018.09 1017.53 1017.00 1016.51 1016.05 1015.63 1015.25 1014.90 1014.56 1014.21 1013.83 1013.42 1012.96 1012.44 1011.87 1011.26 1010.63 1010.03 1009.46 1008.98
Thickness
5739 5737 5730 5727 5726 5725 5722 5720 5720 5721 5720 5719 5719 5719 5717 5713 5710 5707 5702 5700 5698 5696 5693 5691 5689 5687 5685 5684 5683 5682 5681 5679 5678 5677 5676 5676 5675 5674 5674 5673 5673 5672 5672
5738 5735 5730 5725 5723 5721 5718 5716 5714 5715 5713 5713 5713 5712 5709 5706 5702 5699 5697 5693 5691 5689 5687 5685 5682 5680 5679 5677 5676 5674 5673 5672 5672 5671 5670 5669 5668 5667 5666 5666 5665 5665 5665
5734 5729 5725 5721 5717 5715 5713 5711 5708 5707 5706 5705 5703 5702 5700 5697 5694 5691 5688 5686 5684 5682 5680 5677 5675 5673 5672 5670 5668 5667 5665 5664 5663 5662 5661 5660 5659 5658 5658 5657 5657 5657 5657
5732 5725 5719 5714 5710 5708 5705 5702 5699 5696 5694 5693 5691 5689 5688 5687 5685 5683 5680 5678 5677 5675 5673 5670 5667 5665 5664 5662 5660 5658 5657 5655 5653 5652 5651 5650 5648 5647 5647 5647 5647 5647 5648
5729 5722 5715 5709 5704 5700 5697 5693 5688 5686 5682 5679 5679 5678 5678 5678 5676 5675 5673 5671 5668 5667 5665 5663 5661 5658 5656 5653 5651 5649 5647 5645 5643 5641 5639 5638 5636 5635 5634 5634 5634 5635 5636
5724 5719 5712 5705 5699 5692 5687 5683 5678 5675 5671 5668 5669 5668 5669 5669 5668 5667 5666 5664 5662 5660 5658 5655 5653 5651 5648 5645 5642 5639 5637 5634 5631 5629 5626 5624 5623 5621 5620 5619 5619 5620 5621
5717 5712 5705 5698 5692 5686 5680 5675 5670 5665 5661 5659 5657 5657 5660 5662 5661 5660 5659 5657 5655 5654 5651 5648 5646 5643 5640 5636 5633 5630 5626 5623 5619 5615 5612 5609 5607 5605 5604 5603 5603 5603 5604
5710 5705 5699 5691 5684 5678 5672 5667 5664 5658 5654 5651 5648 5646 5648 5651 5653 5654 5651 5649 5647 5645 5643 5640 5638 5634 5630 5627 5624 5619 5615 5612 5607 5602 5597 5594 5590 5588 5587 5586 5586 5586 5587
5702 5697 5692 5685 5679 5673 5667 5662 5657 5652 5647 5644 5643 5641 5637 5637 5640 5642 5642 5640 5639 5636 5633 5630 5627 5623 5620 5615 5611 5606 5602 5598 5593 5587 5581 5577 5573 5570 5568 5567 5567 5567 5568
5692 5687 5683 5677 5671 5665 5660 5654 5649 5646 5643 5638 5634 5633 5630 5627 5623 5624 5628 5629 5628 5625 5623 5620 5616 5612 5607 5602 5597 5593 5588 5583 5577 5570 5564 5559 5555 5552 5549 5548 5547 5548 5549
5680 5676 5672 5667 5661 5657 5651 5646 5641 5638 5635 5630 5626 5624 5622 5619 5616 5611 5611 5612 5612 5612 5610 5607 5603 5599 5594 5588 5583 5578 5572 5565 5558 5551 5546 5541 5537 5533 5531 5529 5528 5528 5529
5668 5664 5660 5656 5651 5646 5642 5637 5633 5629 5624 5620 5617 5614 5610 5607 5603 5600 5598 5597 5596 5595 5593 5590 5586 5582 5578 5572 5566 5559 5553 5546 5539 5533 5527 5522 5519 5515 5512 5510 5509 5509 5510
5656 5652 5648 5644 5640 5635 5630 5626 5622 5618 5613 5609 5605 5601 5597 5593 5590 5587 5584 5582 5581 5579 5577 5573 5569 5565 5559 5552 5545 5538 5533 5526 5521 5515 5509 5504 5500 5497 5494 5492 5491 5490 5491
5644 5640 5636 5632 5627 5623 5619 5614 5610 5606 5601 5596 5593 5588 5583 5580 5576 5572 5568 5565 5564 5563 5559 5555 5551 5546 5540 5533 5525 5519 5514 5508 5502 5497 5492 5487 5483 5480 5477 5474 5473 5472 5473
5631 5627 5623 5618 5614 5610 5606 5602 5597 5593 5588 5584 5579 5575 5569 5565 5561 5557 5553 5548 5545 5544 5543 5537 5532 5528 5522 5515 5507 5501 5496 5491 5486 5480 5476 5473 5469 5466 5463 5460 5458 5457 5458
5618 5614 5609 5604 5600 5596 5592 5588 5585 5580 5575 5571 5566 5561 5555 5551 5546 5540 5536 5532 5527 5525 5526 5521 5514 5508 5503 5496 5490 5485 5480 5476 5473 5469 5466 5462 5458 5455 5452 5450 5448 5447 5447
5605 5600 5595 5591 5587 5583 5578 5574 5570 5566 5562 5557 5551 5547 5541 5536 5530 5524 5519 5515 5511 5507 5505 5503 5495 5490 5484 5479 5475 5470 5467 5465 5463 5460 5456 5453 5450 5448 5445 5443 5442 5441 5440
5591 5586 5582 5577 5573 5569 5563 5559 5555 5550 5546 5540 5535 5530 5525 5520 5514 5509 5504 5498 5494 5489 5485 5485 5480 5474 5469 5464 5462 5458 5456 5454 5452 5451 5449 5447 5446 5444 5442 5440 5439 5438 5438
5576 5572 5567 5563 5558 5553 5549 5543 5538 5533 5528 5523 5518 5513 5509 5504 5500 5494 5489 5484 5479 5475 5470 5467 5465 5461 5457 5453 5451 5449 5447 5445 5443 5443 5443 5443 5442 5440 5439 5439 5438 5438 5438
5560 5556 5551 5546 5542 5536 5529 5523 5519 5515 5511 5507 5502 5498 5494 5491 5486 5481 5476 5471 5467 5461 5456 5453 5452 5449 5446 5444 5442 5441 5440 5438 5437 5436 5436 5436 5436 5436 5436 5437 5437 5437 5437
5543 5538 5534 5530 5525 5516 5507 5502 5498 5497 5493 5491 5489 5486 5482 5479 5475 5469 5464 5459 5453 5449 5445 5442 5441 5440 5439 5437 5435 5433 5432 5432 5432 5430 5431 5431 5431 5432 5433 5434 5435 5436 5436
5525 5521 5517 5512 5506 5497 5488 5484 5480 5478 5477 5477 5476 5474 5470 5468 5465 5458 5453 5448 5443 5439 5437 5434 5433 5432 5433 5431 5430 5428 5425 5425 5428 5427 5425 5426 5426 5428 5429 5430 5432 5433 5433
5509 5504 5500 5494 5486 5477 5473 5469 5465 5463 5464 5465 5464 5461 5459 5457 5453 5448 5443 5440 5437 5435 5433 5430 5430 5429 5429 5427 5425 5424 5421 5420 5420 5421 5421 5423 5424 5425 5426 5427 5428 5429 5430
5493 5488 5483 5478 5471 5463 5458 5454 5451 5452 5453 5453 5451 5449 5447 5445 5442 5436 5434 5433 5432 5432 5431 5430 5429 5428 5426 5425 5422 5419 5418 5418 5419 5419 5419 5420 5422 5422 5424 5424 5424 5425 5425
5478 5474 5469 5463 5458 5450 5444 5440 5438 5439 5442 5441 5440 5439 5437 5435 5431 5428 5427 5428 5429 5430 5430 5430 5428 5427 5426 5424 5421 5418 5417 5416 5418 5419 5417 5416 5417 5417 5419 5420 5421 5420 5420
5463 5459 5454 5450 5445 5440 5432 5428 5425 5426 5427 5427 5429 5429 5429 5427 5424 5422 5422 5424 5426 5428 5429 5429 5428 5428 5426 5425 5422 5418 5415 5414 5415 5416 5415 5411 5411 5410 5413 5415 5415 5416 5417